Lid_Strength_Index
2 3 3 4 2 2 2 2 2 2 1 1 1 2 3 3 5 7 9 8 9 10 11 11 11 11 11 11 11 11 11 12 14 14 13 11 11 10 10 10 9 9 9
3 2 3 3 3 2 2 2 2 2 2 1 1 2 3 5 6 8 9 9 9 10 11 11 11 10 12 11 11 12 13 14 14 15 13 11 11 10 10 10 9 9 9
2 2 3 3 3 2 3 3 2 2 2 2 2 4 6 7 8 8 10 9 10 11 11 12 12 11 12 11 12 14 14 14 15 14 13 12 12 11 11 11 11 11 9
3 3 3 3 3 2 2 3 3 2 2 4 5 7 8 8 9 10 12 12 12 12 12 12 11 12 12 12 13 14 15 15 15 13 13 13 12 12 12 12 12 11 11
4 3 3 2 3 4 3 3 3 3 4 6 7 8 9 9 10 11 12 12 12 12 11 10 11 9 10 12 13 15 15 15 14 14 13 14 14 14 14 12 12 10 10
5 4 3 3 3 3 3 3 5 6 6 7 9 9 10 11 12 11 12 13 13 13 13 14 13 11 9 9 10 11 13 14 14 14 14 14 14 14 12 11 11 12 13
6 3 3 4 5 5 5 5 7 8 8 10 11 12 13 13 13 13 13 14 14 14 14 14 13 13 14 15 12 11 10 8 9 13 15 15 13 11 11 11 11 12 12
6 5 5 5 6 7 7 8 8 9 9 10 12 12 13 13 15 15 14 15 15 15 15 15 15 16 15 15 15 13 12 12 12 11 14 13 12 10 10 10 11 12 11
8 6 6 7 7 8 9 9 10 11 11 12 12 13 14 15 15 14 15 15 16 17 16 16 16 16 14 13 13 13 13 13 9 9 9 10 10 9 9 10 11 12 11
9 8 7 8 9 9 9 10 11 11 12 12 13 13 14 16 15 15 15 16 17 17 16 15 13 15 14 13 14 14 14 14 14 13 13 12 12 11 9 10 10 11 10
10 9 9 9 10 10 10 10 11 12 13 14 15 16 16 15 15 15 15 16 16 16 16 15 14 13 12 12 12 13 14 14 13 14 14 13 13 12 10 10 9 9 10
10 10 10 10 10 11 11 11 12 13 14 15 16 16 15 15 14 15 15 16 15 15 16 15 14 12 12 11 12 11 11 12 14 14 14 13 13 12 10 11 9 8 8
11 11 12 12 12 12 13 13 15 15 15 16 16 16 15 15 15 14 14 14 14 15 14 13 12 12 12 12 11 11 12 14 15 14 14 13 12 11 9 11 9 8 8
12 12 12 12 12 13 13 13 14 14 14 14 15 16 16 16 16 16 15 13 13 13 13 12 11 12 11 12 13 13 13 13 14 14 14 13 12 11 10 9 8 9 10
14 14 14 13 14 14 14 14 14 14 14 14 15 15 16 16 16 15 15 15 15 14 13 13 14 15 14 14 15 14 14 13 14 13 13 13 13 12 11 9 9 9 11
14 14 14 14 14 15 15 16 15 15 15 15 15 14 15 15 15 14 14 14 13 12 13 14 15 15 15 16 16 16 15 14 14 14 14 14 13 12 11 10 9 10 11
14 14 14 15 15 15 16 16 17 16 15 15 15 14 14 14 15 14 14 13 13 13 15 16 16 16 16 16 16 16 16 15 15 15 15 14 13 12 11 11 10 10 11
15 15 15 15 15 15 15 14 14 15 16 15 14 14 14 14 14 14 13 13 15 15 16 17 17 17 17 17 17 17 16 16 16 15 15 14 13 12 11 11 11 11 12
15 15 16 16 15 14 15 15 15 15 15 15 15 15 15 15 13 13 13 15 16 16 17 17 17 17 17 17 17 17 17 17 17 16 15 14 13 12 12 11 11 11 12
15 15 15 15 15 15 15 16 16 15 15 15 16 16 15 15 15 15 15 16 16 16 17 17 17 18 17 18 17 17 18 17 17 16 16 13 12 12 12 12 11 11 12
14 14 15 14 15 15 15 15 15 15 15 16 16 16 16 15 15 16 16 15 16 17 17 18 18 17 17 17 17 18 17 17 17 17 15 13 12 12 12 12 12 12 12
13 14 14 15 14 14 15 15 15 15 15 16 15 15 15 15 15 15 16 16 17 17 17 17 17 18 18 18 18 18 17 17 17 16 14 13 12 12 13 13 12 12 12
13 14 15 14 14 15 15 14 15 15 15 15 15 15 15 15 15 16 16 17 17 17 18 17 18 18 17 17 17 17 18 17 17 16 14 13 13 12 13 13 13 14 13
14 13 13 14 14 14 14 14 15 15 14 14 15 15 15 16 16 15 16 17 18 18 18 18 18 18 18 17 17 16 16 16 15 14 13 13 12 13 13 13 13 13 13
13 13 13 13 14 14 14 14 14 14 14 14 14 15 15 15 15 15 16 17 18 19 18 18 18 18 17 17 16 16 15 14 14 13 13 12 12 13 13 13 13 13 13
12 12 13 13 13 13 14 14 14 14 14 14 15 15 15 16 16 17 18 19 19 19 19 19 18 17 17 17 16 15 14 14 13 13 12 12 12 12 13 13 13 13 13